Timeline UpdatesTrip UpdatesNews PostsPvt PostsTravel TipsAdmin PostsConv PostsFollowed PostsChat RequestsBlog PostsPNR Posts

Disclaimer
Search
 
 
Mon Apr 21, 2014 05:01:27 ISTHomeTrainsΣChainsAtlasPNRForumGalleryNewsFAQTripsMembersLoginFeedback
No Recent News for this Train
Other Trains in the News **new
Latest...
Will stop at Ramanagaram, according to IRCTC
Tue Mar 11, 2014 (07:35PM)
⇐ Return Journey: Train# 16209

16210/Mysore-Ajmer Express

Mar 11 2014 (10:33AM)
Change Departure Station:
Change Arrival Station:
Post a Train Travel TipPost a Train Travel Tip **new
Post a Comment/Question/Picture/VideoPost a Comment/Question/Picture/Video
Pantry/Catering
✓ Pantry Car Avbl
✓ Catering Avbl
RSA - Rake Sharing
16217/16218 Mysore-Shirdi Express
Rake/Coach Composition
LOCO-SLR-GEN-GEN-A1-A2-B1-B2-S1-S2-S3-PC-S4-S5-S6-S7-S8-S9-S10-S11-S12-S13-GEN-SLR; Total 23 coaches
Loco
UBL WDP-4/4B No Loco Change at Pune / Ahmedabad
News    PNR    Forum    Time-Table    Availability    Fare Chart    Map    Arr/Dep History    Trips    Gallery    ΣChains    X/O    Timeline    
Travel Time: 47h 30m    42 halts    Distance: 2291 km    Avg Speed: 48 km/hr
Type: Mail/Express
Zone: SWR/South Western
Departs @ 18:00 (Avg on time)
Platform# 5
  T T  
Mysore Junction/MYS 
Arrives @ 17:30 +2 nights (Avg 4m late)
Platform# 3
    T S
Ajmer Junction/AII 

42 halts. 370 intermediate Stations between Mysore Junction and Ajmer Junction

Show ALL intermediate Stations  Show Old Time-Table

#CodeStation NameX/OArrivesAvgDepartsAvgHaltPFDay#KmSpeedElevZoneAddress
1MYS»Mysore Junction (6)»  -18:00+0510.054760mSWRTel No 0821-2521751.URL: www.mysorerailwaystation.in, Karnataka
2MYAMandya (3)  18:49+2018:50+221m--144.253672mSWRMandya, Karnataka
3RMGMRamanagaram (4)X  19:45+019:46+01m2192.824692mSWRRamanagaram, Karnataka
4SBCBangalore City Junction (10)O  21:35-221:55+220m81137.234903mSWRBengaluru-560023, Karnataka
5YPRYesvantpur Junction (6)  22:05+422:07+42m--1142.869919mSWRTel:080-23371444, Karnataka
6TKTumkur (3)  23:03+623:05+62m--1206.871823mSWRTumkur, Karnataka
7TTRTiptur (4)  00:05+1000:06+121m22277.839860mSWRTiptur, Karnataka
8ASKArsikere Junction (3)  00:45+200:50+85m--2303.356816mSWRArsikere, Karnataka
9RRBBirur Junction (3)  01:38+201:40+42m--2348.364802mSWRBirur, Karnataka
10DVGDavangere (2)  03:27+2403:30+243m--2463.343598mSWRDavanagere, Karnataka
11HRRHarihar (3)  03:48+2503:50+252m--2476.158553mSWRHarihar, Karnataka
12RNRRanibennur (3)  04:14+2904:15+291m--2499.467583mSWRRanebennur, Karnataka
13HVRHaveri (3)  04:44+2904:45+291m--2532.045558mSWRHaveri, Karnataka
14UBLHubli Junction (5)  06:25+1106:35+2210m12607.152640mSWRHubli - 580020, Karnataka
15DWRDharwad (4)  06:58+2907:00+292m12627.151737mSWRDharwad 580001, Karnataka
16LDLonda Junction (4)  08:23+2008:25+202m22697.644643mSWRLonda, Karnataka
17BGMBelgaum (3)X  09:35+1909:40+235m12748.946752mSWRBelgaum 590001, Karnataka
18MRJMiraj Junction (6)  12:40+312:45+135m12886.337554mCRMiraj 416410, Maharashtra
19SLISangli (3)  12:57+1713:00+183m12893.669559mCRSangli, Maharashtra
20KRDKarad (3)  13:59+2414:00+261m12961.559597mCRDist- Satara., Maharashtra
21STRSatara (3)  15:00+2915:03+303m121020.240637mCRSatara, Maharashtra
22PUNEPune Junction (6)  18:40+318:50+910m321165.955556mCRPune 411001, Maharashtra
23LNLLonavala (3)  19:59+320:00+71m221229.535623mCRLonavala 410401, Maharashtra
24KJTKarjat Junction (4)X  20:49+920:50+101m221258.25657mCRKarjat, Maharashtra
25KYNKalyan Junction (8)  21:40+821:45+65m721305.04510mCRKalyan 421301, Maharashtra
26BIRDBhiwandi Road (4)  22:09+722:10+91m421323.04126mCRBhiwandi, Maharashtra
27BSRVasai Road (7)  22:50+422:55+65m621350.3647mWRThane-401202, Maharashtra
28VAPIVapi (3)X  00:49+1400:50+151m--31471.36327mWRVapi, Gujarat
29BLValsad (3)  01:15+1001:16+141m231497.64615mWRValsad, Gujarat
30STSurat (4)  02:45+102:55+110m131566.37919mWRSurat 395001, Gujarat
31BHBharuch Junction (5)  03:40+403:41+51m331625.67419mWRBharuch, Gujarat
32BRCVadodara Junction (7)  04:38+904:55+717m231696.16536mWRVadodara, Gujarat
33ANNDAnand Junction (6)  05:28+705:29+71m--31731.86944mWRAnand, Gujarat
34NDNadiad Junction (4)X  05:45+1805:46+181m--31750.34637mWRNadiad, Gujarat
35ADIAhmedabad Junction (12)  06:45+2107:05+2320m331795.93351mWRAhmedabad, Gujarat
36MSHMahesana Junction (6)  09:19+709:20+101m231868.95095mWRMehsana, Gujarat
37PNUPalanpur Junction (5)  10:38+610:40+122m131933.949216mWRPalanpur, Gujarat
38ABRAbu Road (3)XO  11:45+1711:55+2110m231986.566264mNWRSirohi Dist, Rajasthan
39SOHSirohi Road (2)  12:35+2512:36+261m--32030.465369mNWRPindwara, Rajasthan
40FAFalna (2)  13:27+2813:28+301m132085.464282mNWRFalna, Rajasthan
41MJMarwar Junction (4)  14:30+2714:32+292m--32151.966267mNWRMarwar Junction, Rajasthan
42SODSojat Road (2)  14:51+3214:52+341m--32172.845295mNWRSojat Road, Rajasthan
43BERBeawar (2)X  16:20+1716:21+181m--32239.345447mNWRBeawar, Rajasthan
44AII•Ajmer Junction (5)•  17:30+4-332291.5-464mNWRPin: 305001, Rajasthan
Scroll to Top
Scroll to Bottom